Location: Peyton Hall Observatory
(40.3466°N, 74.6516°W)
Time: 13:45:58
(UTC-04:00)

ISS - All Passes

Search period start: 28 March 2015 00:00
Search period end: 07 April 2015 00:00
Orbit: 396 x 406 km, 51.6° (Epoch: 28 March)

Date Brightness Start Highest point End Pass type
(mag) Time Alt. Az. Time Alt. Az. Time Alt. Az.
28 Mar - 00:53:28 10° W 00:56:23 30° NNW 00:59:18 10° NE night (unlit)
28 Mar - 02:32:09 10° NW 02:33:36 12° N 02:35:01 10° NNE night (unlit)
28 Mar - 04:09:15 10° NNW 04:11:04 14° NNE 04:12:53 10° NE visible
28 Mar - 05:44:58 10° NW 05:48:06 46° NNE 05:51:13 10° ESE visible
28 Mar - 07:21:57 10° W 07:24:18 18° SW 07:26:35 10° S daylight
28 Mar - 22:24:35 10° S 22:26:45 17° SE 22:28:59 10° E night (unlit)
28 Mar - 23:59:44 10° WSW 00:02:55 50° NNW 00:06:06 10° NE night (unlit)
29 Mar - 01:37:59 10° NW 01:39:55 14° NNW 01:41:48 10° NNE night (unlit)
29 Mar - 03:16:02 10° NNW 03:17:22 12° N 03:18:44 10° NNE visible
29 Mar - 04:51:46 10° NW 04:54:36 27° NNE 04:57:27 10° E visible
29 Mar - 06:28:03 10° WNW 06:31:04 36° SW 06:34:04 10° SSE daylight
29 Mar - 23:06:15 10° SW 23:09:30 83° SE 23:12:46 10° NE night (unlit)
30 Mar - 00:43:50 10° WNW 00:46:15 19° NNW 00:48:39 10° NNE night (unlit)
30 Mar - 02:22:30 10° NNW 02:23:38 11° N 02:24:46 10° NNE night (unlit)
30 Mar - 03:58:35 10° NNW 04:01:01 19° NNE 04:03:27 10° ENE visible
30 Mar - 05:34:30 10° NW 05:37:44 78° SW 05:40:57 10° SE visible
30 Mar - 22:13:05 10° SSW 22:16:09 39° SE 22:19:13 10° ENE night (unlit)
30 Mar - 23:49:46 10° W 23:52:38 27° NNW 23:55:28 10° NE night (unlit)
31 Mar - 01:28:31 10° NNW 01:29:52 12° N 01:31:12 10° NNE night (unlit)
31 Mar - 03:05:23 10° NNW 03:07:19 15° NNE 03:09:16 10° NE night (unlit)
31 Mar - 04:41:07 10° NW 04:44:18 53° NNE 04:47:28 10° ESE visible
31 Mar - 06:18:20 10° W 06:20:26 16° SW 06:22:27 10° S visible
31 Mar - 21:20:24 10° S 21:22:50 20° SE 21:25:18 10° E night (unlit)
31 Mar - 22:55:54 10° WSW 22:59:02 44° NNW 23:02:11 10° NE night (unlit)
01 Apr - 00:34:16 10° NW 00:36:05 14° NNW 00:37:53 10° NNE night (unlit)
01 Apr - 02:12:06 10° NNW 02:13:33 12° N 02:15:01 10° NE night (unlit)
01 Apr - 03:47:49 10° NW 03:50:45 30° NNE 03:53:40 10° E visible
01 Apr - 05:24:13 10° WNW 05:27:08 31° SW 05:30:01 10° SSE visible
01 Apr - 22:02:16 10° SW 22:05:32 85° NNW 22:08:48 10° NE night (unlit)
01 Apr - 23:40:01 10° WNW 23:42:19 18° NNW 23:44:38 10° NNE night (unlit)
02 Apr - 01:18:34 10° NNW 01:19:44 11° N 01:20:53 10° NNE night (unlit)
02 Apr - 02:54:33 10° NNW 02:57:04 21° NNE 02:59:37 10° ENE night (unlit)
02 Apr - 04:30:31 10° WNW 04:33:44 66° SW 04:36:56 10° SE visible
02 Apr - 21:08:56 10° SSW 21:12:04 46° SE 21:15:13 10° ENE visible
02 Apr - 22:45:50 10° W 22:48:36 25° NNW 22:51:21 10° NNE night (unlit)
03 Apr - 00:24:36 10° NNW 00:25:52 12° N 00:27:08 10° NNE night (unlit)
03 Apr - 02:01:16 10° NNW 02:03:18 15° NNE 02:05:22 10° NE night (unlit)
03 Apr - 03:37:01 10° NW 03:40:14 61° NE 03:43:26 10° ESE night (unlit)
03 Apr - 05:14:32 10° W 05:16:18 14° SW 05:17:58 10° SSW visible
03 Apr - 20:16:02 10° S 20:18:39 23° SE 20:21:19 10° E visible
03 Apr - 21:51:49 10° WSW 21:54:54 39° NNW 21:58:00 10° NE visible
03 Apr - 23:30:17 10° NW 23:32:00 13° N 23:33:41 10° NNE night (unlit)
04 Apr - 01:07:55 10° NNW 01:09:27 13° N 01:11:02 10° NE night (unlit)
04 Apr - 02:43:36 10° NW 02:46:36 34° NNE 02:49:36 10° E night (unlit)
04 Apr - 04:20:07 10° WNW 04:22:56 27° SW 04:25:42 10° SSE night (unlit)
04 Apr - 19:24:08 10° SSE 19:25:16 12° SE 19:26:31 10° ESE daylight
04 Apr - 20:58:02 10° WSW 21:01:17 73° NW 21:04:33 10° NE visible
04 Apr - 22:35:55 10° WNW 22:38:08 17° NNW 22:40:20 10° NNE visible
05 Apr - 00:14:21 10° NNW 00:15:34 12° N 00:16:46 10° NNE night (unlit)
05 Apr - 01:50:14 10° NNW 01:52:52 22° NNE 01:55:30 10° ENE night (unlit)
05 Apr - 03:26:17 10° WNW 03:29:28 56° SW 03:32:38 10° SE night (unlit)
05 Apr - 20:04:32 10° SW 20:07:43 54° SE 20:10:55 10° ENE visible
05 Apr - 21:41:37 10° WNW 21:44:18 23° NNW 21:46:59 10° NNE visible
05 Apr - 23:20:23 10° NNW 23:21:36 12° N 23:22:50 10° NNE visible
06 Apr - 00:56:52 10° NNW 00:59:01 16° NNE 01:01:12 10° ENE night (unlit)
06 Apr - 02:32:39 10° NW 02:35:53 70° NE 02:39:06 10° ESE night (unlit)
06 Apr - 04:10:36 10° WSW 04:11:55 12° SW 04:13:07 10° SSW night (unlit)
06 Apr - 19:11:26 10° SSW 19:14:12 26° SE 19:17:01 10° ENE daylight
06 Apr - 20:47:28 10° W 20:50:32 35° NNW 20:53:34 10° NE visible
06 Apr - 22:26:02 10° NW 22:27:38 13° N 22:29:14 10° NNE visible
